www.pogodaiklimat.ru

Погода и климат >> Архив погоды >> Беларусь >> Марьина Горка


ПОГОДА в Марьиной Горке

  • Прогноз погоды в Марьиной Горке
  • Монитор погоды в Марьиной Горке

АРХИВ ПОГОДЫ в Марьиной Горке

Время (UTC), дата Ветер
(напр.,м/с)
 
Видим.   Явления Облачность Т
(С)
Тd
(С)
f
(%)
Тe
(С)
Тes
(С)
Комфортность P
(гПа)
Po
(гПа)
Тmin
(С)
Tmax
(С)
R
(мм)
R24
(мм)
S
(см)
03 10.07 З 2 8000 м дымка 9/6 600 м
[Sc Ac und]
+10.4 +10.1 98 +9 +9 1003.4 982.4
06 10.07 СЗ 3 13 км 9/8 600 м
[Sc Ac und]
+13.3 +12.2 93 +12 +13 1003.4 982.6 +9.7 0.3
09 10.07 СЗ 2 17 км в посл. час ливневой дождь 9/8 600 м
[Cu Sc Ac und Ci fib]
+14.4 +11.7 84 +14 +16 1003.1 982.4
12 10.07 СЗ 3 20 км в посл. час ливневой дождь {гроза} 8/6 600 м
[Cu med, cong Ac und Ci fib]
+16.9 +12.4 75 +17 +20 1002.7 982.2
15 10.07 СЗ 3 20 км в посл. час гроза {ливн. осадки} 8/4 600 м
[Cu med, cong Ac und Ci fib]
+16.2 +12.0 76 +16 +17 1003.5 982.9
18 10.07 С 1 20 км в посл. час ливневой дождь {гроза} 8/4 300 м
[Cb cap Ac und Ci fib]
+15.5 +12.3 81 +16 +16 1004.0 983.4 +18.7 2
21 10.07 СЗ 1 9000 м дымка {ливн. осадки} 5/3 600 м
[Sc Ac und Ci fib]
+12.1 +11.5 96 +12 +12 1005.0 984.1
00 11.07 СЗ 1 50 км дымка {ливн. осадки} ?/? +10.6 +10.3 98 +10 +10 1005.1 984.1
03 11.07 СЗ 1 5000 м дымка 9/8 600 м
[Sc Ac und]
+11.2 +10.9 98 +11 +11 1005.4 984.4
06 11.07 С 1 7000 м дымка {ливн. осадки} 10/10 400 м
[St]
+14.4 +13.4 94 +15 +15 1005.7 985.0 +9.9 0.3
09 11.07 СВ 1 18 км гроза без осадков {ливн. осадки} 9/6 600 м
[Cb cap Ac und Ci fib]
+16.8 +12.9 78 +18 +22 1006.0 985.4
12 11.07 В 1 25 км в посл. час ливневой дождь {гроза} 9/6 600 м
[Cu med, cong Ac und Ci fib]
+19.5 +11.5 60 +22 +26 комфорт 1005.2 984.8
15 11.07 С 2 26 км 9/8 600 м
[Cu med, cong Ac und Ci fib]
+19.8 +11.6 59 +22 +23 комфорт 1005.5 985.1
18 11.07 С 1 25 км 9/6 600 м
[Sc Ac und Ci fib]
+17.3 +11.1 67 +18 +18 1006.4 985.9 +21.5 0.1
21 11.07 З 1 13 км 8/5 600 м
[Sc Ac und Ci fib]
+12.8 +11.4 91 +13 +13 1007.2 986.3
00 12.07 З 1 10 км 6/4 600 м
[Sc Ac und Ci fib]
+11.5 +10.9 96 +11 +11 1007.2 986.2
03 12.07 штиль 0 9000 м в посл. час ливневой дождь 9/6 600 м
[Cb cap Ac und]
+11.8 +11.5 98 +11 +11 1007.2 986.2
06 12.07 СВ 1 18 км {ливн. осадки} 9/4 600 м
[Cu med, cong Ac und]
+15.1 +11.3 78 +16 +18 1007.4 986.7 +11.2 0.1
09 12.07 Ю 1 18 км в посл. час ливневой дождь 9/8 600 м
[Cb cap Ac und]
+16.0 +12.2 78 +17 +19 1007.9 987.2
12 12.07 С 1 25 км {ливн. осадки} 9/8 600 м
[Cu med, cong Ac und]
+16.0 +10.5 70 +17 +19 1008.0 987.3
15 12.07 СВ 3 25 км 9/8 600 м
[Cu Sc Ac und]
+16.7 +12.0 74 +16 +17 1008.2 987.6
18 12.07 штиль 0 25 км {ливн. осадки} 4/3 600 м
[Sc Ac und]
+16.3 +10.8 70 +16 +16 1009.0 988.3 +20.2 0.3
21 12.07 штиль 0 12 км 3/3 600 м
[Sc]
+11.1 +10.0 93 +10 +10 1010.4 989.3
00 13.07 штиль 0 5000 м дымка 4/3 600 м
[Sc Ac und]
+10.2 +9.9 98 +9 +9 1010.6 989.4
03 13.07 С 1 5000 м дымка 9/8 600 м
[Sc Ac und]
+10.7 +10.2 97 +10 +10 1010.3 989.2
06 13.07 ЮВ 1 15 км 8/5 600 м
[Sc Ac und]
+14.4 +10.8 79 +15 +17 1010.5 989.7 +9.2
09 13.07 В 2 25 км слаб. ливневой дождь 9/8 300 м
[Cb cap Ci fib]
+17.0 +10.1 64 +17 +20 1010.5 989.8
12 13.07 В 1 25 км в посл. час ливневой дождь 9/8 600 м
[Cb cap Ac und]
+18.2 +10.3 60 +20 +22 1009.9 989.3
15 13.07 Ю 2 25 км {ливн. осадки} 6/4 600 м
[Cu Sc Ac und Ci fib]
+18.4 +11.5 64 +19 +22 1009.6 989.1 1
18 13.07 штиль 0 23 км {ливн. осадки} 8/6 600 м
[Sc Ac und]
+17.0 +11.1 68 +17 +17 1009.8 989.2 +19.7 1
21 13.07 штиль 0 15 км 9/6 600 м
[Sc Ac und]
+13.6 +11.5 87 +13 +13 1010.5 989.6
00 14.07 штиль 0 10 км 9/8 600 м
[Sc Ac und]
+12.8 +11.5 92 +12 +12 1010.3 989.4
03 14.07 С 1 9000 м дымка 9/4 600 м
[Sc Ac und Cs]
+11.7 +10.8 94 +11 +12 1010.1 989.1
06 14.07 СВ 2 17 км 9/6 600 м
[Sc Ac und Cs]
+15.3 +11.9 80 +15 +17 1010.0 989.2 +11.5
09 14.07 Ю 1 25 км 10/6 600 м
[Cu med, cong Ac und Cs]
+18.5 +11.1 62 +20 +24 1009.9 989.4
12 14.07 Ю 1 28 км 8/5 600 м
[Cu med, cong Ac und Cs]
+20.7 +11.1 54 +24 +29 комфорт 1009.3 988.9
15 14.07 штиль 0 9000 м слаб. ливневой дождь, в посл. час гроза 9/8 600 м
[Cb cap Ac und]
+15.4 +13.1 86 +15 +16 1010.0 989.3
18 14.07 штиль 0 20 км {гроза, ливн. осадки} 9/8 600 м
[Sc Ac und Ci fib]
+15.2 +13.4 89 +15 +15 1010.3 989.5 +21.3 1
21 14.07 СЗ 1 9000 м дымка 8/5 600 м
[Sc Ac und]
+11.3 +10.4 94 +11 +11 1011.0 989.9
00 15.07 штиль 0 5000 м дымка 5/3 600 м
[Sc Ac und]
+9.6 +9.3 98 +9 +9 1011.1 989.9
03 15.07 штиль 0 1800 м в посл. час туман 8/6 600 м
[Sc Ac und]
+9.5 +9.4 99 +9 +9 1011.0 989.8
06 15.07 С 1 18 км {туман} 3/0 2000 м
[Ac trans]
+16.3 +12.7 79 +17 +24 1010.5 989.8 +8.9
09 15.07 С 2 25 км 8/8 600 м
[Cu med, cong]
+20.4 +9.9 51 +23 +26 комфорт 1010.3 989.9
12 15.07 С 2 30 км 8/4 600 м
[Cu med, cong Ac und]
+21.7 +7.9 41 +23 +27 комфорт 1009.8 989.5
15 15.07 С 4 30 км 8/3 600 м
[Cu med, cong Ac und]
+22.4 +8.2 40 +24 +25 комфорт 1009.6 989.3
18 15.07 штиль 0 25 км 8/3 600 м
[Sc Ac und]
+19.2 +9.9 55 +20 +20 1010.2 989.7 +23.7
21 15.07 штиль 0 17 км 8/4 600 м
[Sc Ac und]
+12.9 +10.1 83 +12 +12 1011.2 990.2
00 16.07 штиль 0 12 км 5/3 600 м
[Sc Ac und]
+11.6 +10.3 92 +11 +11 1010.6 989.6
03 16.07 штиль 0 10 км 8/4 600 м
[Sc Ac und]
+11.5 +10.6 94 +11 +11 1010.2 989.2
06 16.07 В 1 20 км 5/3 600 м
[Sc Ac und]
+18.3 +11.8 66 +20 +24 1009.5 989.0 +10.3
09 16.07 ЮЗ 1 30 км 8/8 600 м
[Cu med, cong]
+22.2 +8.0 40 +23 +27 комфорт 1007.9 987.6
12 16.07 ЮЗ 2 35 км 9/6 600 м
[Cu med, cong Cs]
+24.4 +6.7 32 +24 +29 комфорт 1006.4 986.3
15 16.07 ЮЗ 4 35 км 9/8 600 м
[Cu med, cong Cs]
+23.5 +7.2 35 +24 +24 комфорт 1005.6 985.5
18 16.07 СЗ 3
{11}
8000 м гроза, ливневой дождь 9/8 300 м
[Cb cap Ac und]
+14.9 +12.6 86 +14 +14 1007.2 986.5 +25.7 4
21 16.07 В 2 6000 м в посл. час ливневой дождь {гроза} 9/8 600 м
[Cb cap Ac und]
+13.1 +12.6 97 +12 +12 1006.8 986.0
00 17.07 штиль 0 5000 м в посл. час ливневой дождь {гроза} 9/6 600 м
[Sc Ac und]
+12.8 +12.5 98 +12 +12 1006.5 985.6

 

Местоположение метеостанции Марьина Горка (Минская область, Беларусь): широта 53.45 долгота 28.13 высота над уровнем моря 177 м.

В архиве по умолчанию представлена погода в Марьиной Горке за последнюю неделю. Архивные данные за месяц целиком и за предыдущие месяцы, начиная с января 2011 года, Вы можете получить, выбрав интересующий диапазон дат из раскрывающегося списка и нажав кнопку "Ввод!".


*Определитесь, кто Вы:
робот инопланетянин человек

Внимание! Время в таблицах - всемирное. Для получения местного времени необходимо прибавить поправку, которая равна 3 ч.

Смотрите также архив погоды в соседних городах и на ближайших метеорологических станциях:

Погода в Слуцке (Минская область, Беларусь) (61 км)
Погода в Минске (город Минск, Беларусь) (63 км)
Погода в Березино (Минская область, Беларусь) (71 км)
Погода в Бобруйске (Могилевская область, Беларусь) (72 км)
Погода в Кличеве (Могилевская область, Беларусь) (79 км)
Погода в Столбцах (Минская область, Беларусь) (93 км)
Погода в Борисове (Минская область, Беларусь) (94 км)
Погода в Октябре (Гомельская область, Беларусь) (104 км)
Погода в Воложине (Минская область, Беларусь) (128 км)
Погода в Ганцевичах (Брестская область, Беларусь) (137 км)

Пояснения к столбцам:

Ветер - указаны скорость ветра в м/с - средняя за 10 мин, порывы в срок и между сроками (в фигурных скобках) и направление, откуда дует ветер: С - северный, СВ - северо-восточный, В - восточный, ЮВ - юго-восточный, Ю - южный, ЮЗ - юго-западный, З - западный, СЗ - северо-западный.
Видимость - горизонтальная дальность видимости в метрах или километрах. При видимости от 1 до 10 км при отсутствии осадков обычно наблюдается дымка, при ухудшении видимости до 1 км и менее - туман. В сухую погоду видимость может ухудшаться дымом, пылью или мглою.
Явления - указаны атмосферные явления, наблюдавшиеся в срок или в последний час перед сроком; фигурными скобками обозначены явления, наблюдавшиеся между сроками (за 1-3 часа до срока); квадратными скобками обозначены град или гололедные отложения с указанием их диаметра в мм.
Облачность - указаны через наклонную черту общая и нижняя облачность в баллах и высота нижней границы облаков в метрах; квадратными скобками обозначены формы облаков: Ci - перистые, Cs - перисто-слоистые, Cc - перисто-кучевые, Ac - высококучевые, As - высокослоистые, Sc - слоисто-кучевые, Ns - слоисто-дождевые, Cu - кучевые, Cb - кучево-дождевые. Подробнее классификацию облаков см. в Атласе облаков (PDF).
T - Температура воздуха - температура, измеренная на высоте 2 м над землей.
Td - Температура точки росы - температура, при понижении до которой содержащийся в воздухе водяной пар достигнет насыщения.
f - Относительная влажность воздуха - влажноcть воздуха, измеренная на высоте 2 м над землей.
Te - Эффективная температура - температура, которую ощущает одетый по сезону человек в тени. Характеристика душности погоды. При расчете учитывается влияние влажности воздуха и скорости ветра на теплоощущения человека.
Tes - Эффективная температура на солнце - температура, которую ощущает человек, с поправкой на солнечный нагрев. Характеристика знойности погоды. Зависит от высоты солнца над горизонтом, облачности и скорости ветра. Ночью, в пасмурную погоду, а также при ветре 12 м/с и более поправка равна нулю.
P - Атмосферное давление - приведенное к уровню моря атмосферное давление.
Po - Атмосферное давление - измеренное на уровне метеостанции атмосферное давление.
Tmin - Минимальная температура - минимум температуры воздуха на высоте 2 м над землей.
Tmax - Максимальная температура - максимум температуры воздуха на высоте 2 м над землей.
R - Количество осадков - Количество выпавших осадков за период времени, мм. При наведении курсора мыши на число - период времени, за который выпало указанное количество осадков.
R24 - Количество осадков - Количество выпавших осадков за 24 часа, мм.
S - Снежный покров - Высота снежного покрова, см. При наведении курсора мыши на число - состояние снежного покрова и степень покрытия местности в баллах.